Location: Arborea
(39.7744°N, 8.5819°E)
Time: 18:32:59
(UTC+00:00)

Okean-O - Pass Details

Date: 06 June 2022
Orbit: 638 x 640 km, 98.1° (Epoch: 27 June)

Event Time Altitude Azimuth Distance (km) Brightness Sun altitude
Rises 19:43:25 0° 190° (S) 2,927 5.7 -9.0°
Reaches altitude 10° 19:45:49 10° 201° (SSW) 2,023 5.0 -9.4°
Maximum altitude 19:49:43 31° 263° (W) 1,130 4.4 -10.0°
Drops below altitude 10° 19:53:39 10° 326° (NW) 2,036 6.6 -10.5°
Sets 19:56:05 0° 337° (NNW) 2,949 7.4 -10.9°
